Tracking 29042 objects as of 20-Jun-2024
HD Live streaming from Space Station
objects crossing your sky now

DELTA 1 DEB

Track DELTA 1 DEB now!
10-day predictions


NORAD ID: 8678
Int'l Code: 1975-004F
Perigee: 739.0 km
Apogee: 995.6 km
Inclination: 97.7 °
Period: 102.1 minutes
Semi major axis: 7238 km
RCS: 0.0564 m2 (small)
Launch date: January 22, 1975
Source: United States (US)
Launch site: AIR FORCE WESTERN TEST RANGE (AFWTR)

Note: This is SATELLITE DEBRIS
Your satellite tracking list
Your tracking list is empty




NASA's NSSDC Master Catalog

Two Line Element Set (TLE):
1 08678U 75004F   24171.79351417  .00000210  00000-0  11920-3 0  9996
2 08678  97.6864 261.5683 0177288 106.5475 255.5255 14.09764352536074
Source of the keplerian elements: AFSPC